Flag for U.S.A. Weather past 2 weeks in Clearwater, Florida, U.S.A.

Now
N/A

Low clouds.


Feels Like: N/A
Forecast: 74 / 83 °F
Wind: 5 mph from North

Location: St. Petersburg / Clearwater International Airport

Current Time: Oct 1, 2014 at 4:30:37 AM

Latest Report: Oct 1, 2014 at 3:53 AM


Visibility: 10 mi

Pressure: 29.81 "Hg

Humidity: N/A

Dew point: N/A

Location of ClearwaterLocation

Historic Weather in Clearwater — Graph

°F

Clearwater temperature yesterday

Maximum temperature yesterday: 85 °F (at 12:53 PM)
Minimum temperature yesterday: 75 °F (at 5:53 AM)
Average temperature yesterday: 80 °F

Past Weeks' High & Low Weather Summary

 TemperatureHumidityPressure
High89 °F (Sep 18, 2:53 PM)97% (Sep 17, 10:53 AM)30.11 "Hg (Sep 17, 10:53 AM)
Low71 °F (Sep 22, 12:53 PM)53% (Sep 18, 2:53 PM)29.80 "Hg (Sep 30, 4:53 PM)
Average78 °F85%29.96 "Hg
* Reported Sep 16 3:53 AM — Oct 1 3:00 AM, Clearwater, Weather by CustomWeather, © 2014

Note: Actual official high and low records may vary slightly from our data, if they occured in-between our weather recording intervals... More about our weather records

Advertising

Clearwater weather history for previous 24 hours

 ConditionsComfort  
Time TempWeatherWind HumidityBarometerVisibility
3:00 AM
Oct 1
N/AMostly cloudy.9 mphN/A29.82 "Hg10 mi
1:53 AMN/ALight rain.9 mphN/A29.83 "Hg3 mi
12:53 AMN/APartly cloudy.9 mphN/A29.84 "Hg10 mi
11:53 PM
Sep 30
78 °FPassing clouds.7 mph93%29.84 "Hg10 mi
10:53 PM79 °FPartly cloudy.7 mph90%29.84 "Hg10 mi
9:53 PM78 °FPassing clouds.6 mph93%29.85 "Hg10 mi
8:53 PM78 °FPassing clouds.5 mph90%29.84 "Hg10 mi
7:53 PM79 °FLight rain. Partly sunny.6 mph88%29.83 "Hg8 mi
7:00 PM81 °FScattered clouds.No wind82%29.83 "Hg10 mi
5:53 PM81 °FScattered clouds.8 mph82%29.81 "Hg10 mi
4:53 PM81 °FPartly sunny.6 mph82%29.80 "Hg10 mi
3:53 PM79 °FScattered clouds.8 mph88%29.81 "Hg10 mi
2:53 PM79 °FHeavy rain. Mostly cloudy.9 mph82%29.82 "Hg10 mi
1:53 PM85 °FBroken clouds.12 mph75%29.84 "Hg10 mi
12:53 PM85 °FBroken clouds.15 mph75%29.85 "Hg10 mi
11:53 AM84 °FBroken clouds.14 mph74%29.86 "Hg10 mi
11:04 AM84 °FPartly sunny.12 mph74%29.86 "Hg10 mi
11:01 AM84 °FPartly sunny.13 mph74%29.86 "Hg10 mi
9:53 AM83 °FScattered clouds.10 mph77%29.86 "Hg10 mi
8:53 AM80 °FScattered clouds.6 mph85%29.85 "Hg10 mi
7:53 AM78 °FClear.7 mph87%29.84 "Hg10 mi
6:53 AM76 °FPassing clouds.No wind91%29.84 "Hg10 mi
5:53 AM75 °FPassing clouds.No wind96%29.82 "Hg10 mi
4:53 AMN/AClear.3 mphN/A29.81 "Hg10 mi
Weather by CustomWeather, © 2014

See weather overviewHow to use our weather pages